TimeCDT,TemperatureF,Dew PointF,Humidity,Sea Level PressureIn,VisibilityMPH,Wind Direction,Wind SpeedMPH,Gust SpeedMPH,PrecipitationIn,Events,Conditions,WindDirDegrees,DateUTC
12:15 AM,71.6,62.6,73,30.09,10.0,SE,4.6,-,N/A,,Clear,130,2013-06-16 05:15:00
12:35 AM,71.6,60.8,69,30.09,10.0,SE,3.5,-,N/A,,Clear,140,2013-06-16 05:35:00
12:55 AM,71.6,60.8,69,30.09,10.0,SSE,3.5,-,N/A,,Clear,150,2013-06-16 05:55:00
1:15 AM,69.8,60.8,73,30.09,10.0,SE,4.6,-,N/A,,Clear,140,2013-06-16 06:15:00
1:35 AM,71.6,60.8,69,30.09,10.0,SE,4.6,-,N/A,,Clear,130,2013-06-16 06:35:00
1:55 AM,69.8,60.8,73,30.08,10.0,SE,4.6,-,N/A,,Clear,140,2013-06-16 06:55:00
2:15 AM,69.8,60.8,73,30.08,10.0,SE,4.6,-,N/A,,Clear,130,2013-06-16 07:15:00
2:35 AM,69.8,60.8,73,30.08,10.0,SE,3.5,-,N/A,,Clear,140,2013-06-16 07:35:00
2:55 AM,69.8,60.8,73,30.08,10.0,SE,4.6,-,N/A,,Clear,130,2013-06-16 07:55:00
3:15 AM,69.8,60.8,73,30.08,10.0,SE,4.6,-,N/A,,Clear,130,2013-06-16 08:15:00
3:35 AM,69.8,60.8,73,30.08,10.0,SE,3.5,-,N/A,,Clear,140,2013-06-16 08:35:00
3:55 AM,69.8,60.8,73,30.09,10.0,SE,3.5,-,N/A,,Clear,140,2013-06-16 08:55:00
4:15 AM,68.0,60.8,78,30.08,10.0,SE,5.8,-,N/A,,Scattered Clouds,130,2013-06-16 09:15:00
4:35 AM,68.0,60.8,78,30.08,10.0,SE,4.6,-,N/A,,Clear,140,2013-06-16 09:35:00
4:55 AM,68.0,60.8,78,30.09,10.0,SE,4.6,-,N/A,,Clear,130,2013-06-16 09:55:00
5:15 AM,68.0,60.8,78,30.09,10.0,ESE,3.5,-,N/A,,Clear,120,2013-06-16 10:15:00
5:35 AM,68.0,60.8,78,30.10,10.0,SE,3.5,-,N/A,,Clear,130,2013-06-16 10:35:00
5:55 AM,68.0,60.8,78,30.10,10.0,ESE,4.6,-,N/A,,Scattered Clouds,120,2013-06-16 10:55:00
6:15 AM,68.0,62.6,83,30.11,10.0,ESE,4.6,-,N/A,,Mostly Cloudy,120,2013-06-16 11:15:00
6:35 AM,69.8,60.8,73,30.11,10.0,ESE,3.5,-,N/A,,Overcast,120,2013-06-16 11:35:00
6:55 AM,69.8,62.6,78,30.12,10.0,Calm,Calm,-,N/A,,Mostly Cloudy,0,2013-06-16 11:55:00
7:15 AM,69.8,62.6,78,30.12,10.0,ESE,3.5,-,N/A,,Scattered Clouds,120,2013-06-16 12:15:00
7:35 AM,71.6,62.6,73,30.12,10.0,SE,4.6,-,N/A,,Clear,140,2013-06-16 12:35:00
7:55 AM,73.4,62.6,69,30.13,10.0,SE,4.6,-,N/A,,Clear,140,2013-06-16 12:55:00
8:15 AM,75.2,62.6,65,30.13,10.0,SSE,5.8,-,N/A,,Clear,160,2013-06-16 13:15:00
8:35 AM,77.0,62.6,61,30.13,10.0,SSE,5.8,-,N/A,,Clear,150,2013-06-16 13:35:00
8:55 AM,77.0,62.6,61,30.13,10.0,South,5.8,-,N/A,,Clear,170,2013-06-16 13:55:00
9:15 AM,78.8,62.6,57,30.13,10.0,South,8.1,-,N/A,,Scattered Clouds,170,2013-06-16 14:15:00
9:35 AM,80.6,64.4,58,30.13,10.0,South,5.8,-,N/A,,Scattered Clouds,170,2013-06-16 14:35:00
9:55 AM,78.8,66.2,65,30.12,10.0,South,6.9,-,N/A,,Scattered Clouds,170,2013-06-16 14:55:00
10:15 AM,78.8,66.2,65,30.12,10.0,SSW,9.2,-,N/A,,Mostly Cloudy,200,2013-06-16 15:15:00
10:35 AM,78.8,68.0,69,30.11,10.0,SSW,5.8,-,N/A,,Mostly Cloudy,210,2013-06-16 15:35:00
10:55 AM,80.6,68.0,65,30.11,10.0,SSW,6.9,-,N/A,,Scattered Clouds,200,2013-06-16 15:55:00
11:15 AM,82.4,68.0,62,30.10,10.0,SW,6.9,-,N/A,,Scattered Clouds,220,2013-06-16 16:15:00
11:35 AM,82.4,69.8,66,30.10,10.0,SSW,6.9,-,N/A,,Mostly Cloudy,210,2013-06-16 16:35:00
11:55 AM,84.2,68.0,58,30.10,10.0,SSW,10.4,-,N/A,,Mostly Cloudy,210,2013-06-16 16:55:00
12:15 PM,82.4,69.8,66,30.09,10.0,SW,8.1,-,N/A,,Mostly Cloudy,220,2013-06-16 17:15:00
12:35 PM,86.0,68.0,55,30.08,10.0,SW,8.1,-,N/A,,Scattered Clouds,230,2013-06-16 17:35:00
12:55 PM,82.4,69.8,66,30.08,10.0,South,5.8,-,N/A,,Scattered Clouds,180,2013-06-16 17:55:00
1:15 PM,86.0,69.8,58,30.08,10.0,SSW,8.1,-,N/A,,Scattered Clouds,200,2013-06-16 18:15:00
1:35 PM,80.6,69.8,70,30.07,10.0,SSE,10.4,-,N/A,,Mostly Cloudy,150,2013-06-16 18:35:00
1:55 PM,78.8,69.8,74,30.06,10.0,SE,5.8,-,N/A,Thunderstorm,Thunderstorm,140,2013-06-16 18:55:00
2:15 PM,82.4,71.6,70,30.06,10.0,ESE,4.6,-,N/A,,Scattered Clouds,120,2013-06-16 19:15:00
2:35 PM,82.4,71.6,70,30.05,10.0,SE,5.8,-,N/A,,Scattered Clouds,130,2013-06-16 19:35:00
2:55 PM,84.2,71.6,66,30.04,10.0,SE,5.8,-,N/A,,Scattered Clouds,130,2013-06-16 19:55:00
3:15 PM,86.0,69.8,58,30.03,10.0,SSE,9.2,-,N/A,,Clear,150,2013-06-16 20:15:00
3:35 PM,86.0,69.8,58,30.03,10.0,SSW,6.9,-,N/A,,Clear,200,2013-06-16 20:35:00
3:55 PM,86.0,68.0,55,30.02,10.0,South,5.8,-,N/A,,Scattered Clouds,190,2013-06-16 20:55:00
4:15 PM,86.0,69.8,58,30.02,10.0,SSW,9.2,-,N/A,,Scattered Clouds,200,2013-06-16 21:15:00
4:35 PM,86.0,68.0,55,30.02,10.0,South,9.2,-,N/A,,Clear,190,2013-06-16 21:35:00
4:55 PM,84.2,68.0,58,30.02,10.0,SSW,5.8,-,N/A,,Mostly Cloudy,200,2013-06-16 21:55:00
5:15 PM,82.4,69.8,66,30.00,10.0,SSW,8.1,-,N/A,,Mostly Cloudy,210,2013-06-16 22:15:00
5:35 PM,82.4,69.8,66,30.02,10.0,SSW,6.9,-,N/A,Thunderstorm,Scattered Clouds,210,2013-06-16 22:35:00
5:55 PM,82.4,69.8,66,30.02,10.0,Calm,Calm,-,N/A,Thunderstorm,Mostly Cloudy,0,2013-06-16 22:55:00
6:15 PM,80.6,71.6,74,30.02,10.0,Calm,Calm,-,N/A,Rain,Light Rain,0,2013-06-16 23:15:00
6:35 PM,73.4,69.8,88,30.03,7.0,NE,6.9,-,0.01,Rain-Thunderstorm,Light Thunderstorms and Rain,40,2013-06-16 23:35:00
6:55 PM,73.4,73.4,100,30.03,10.0,Calm,Calm,-,0.01,Thunderstorm,Overcast,0,2013-06-16 23:55:00
7:15 PM,71.6,71.6,100,30.06,1.8,SE,11.5,-,0.24,Rain-Thunderstorm,Heavy Thunderstorms and Rain,140,2013-06-17 00:15:00
7:35 PM,69.8,69.8,100,30.07,3.0,East,8.1,-,0.51,Rain-Thunderstorm,Thunderstorms and Rain,100,2013-06-17 00:35:00
7:55 PM,69.8,69.8,100,30.07,7.0,East,3.5,-,0.71,Rain-Thunderstorm,Thunderstorms and Rain,90,2013-06-17 00:55:00
8:15 PM,69.8,69.8,100,30.05,7.0,NE,4.6,-,N/A,Thunderstorm,Thunderstorm,50,2013-06-17 01:15:00
8:35 PM,69.8,69.8,100,30.06,10.0,Calm,Calm,-,0.01,,Scattered Clouds,0,2013-06-17 01:35:00
8:55 PM,68.0,68.0,100,30.04,7.0,ESE,5.8,-,0.01,,Scattered Clouds,120,2013-06-17 01:55:00
9:15 PM,68.0,68.0,100,30.04,10.0,SE,5.8,-,N/A,,Clear,140,2013-06-17 02:15:00
9:35 PM,68.0,68.0,100,30.06,7.0,Calm,Calm,-,N/A,,Clear,0,2013-06-17 02:35:00
9:55 PM,68.0,68.0,100,30.07,7.0,ENE,3.5,-,N/A,,Clear,60,2013-06-17 02:55:00
10:15 PM,68.0,68.0,100,30.07,7.0,ESE,4.6,-,N/A,,Clear,110,2013-06-17 03:15:00
10:35 PM,68.0,68.0,100,30.06,7.0,ESE,4.6,-,N/A,,Clear,120,2013-06-17 03:35:00
10:55 PM,69.8,69.8,100,30.05,7.0,SE,5.8,-,N/A,,Clear,140,2013-06-17 03:55:00
11:15 PM,69.8,69.8,100,30.03,10.0,SSE,5.8,-,N/A,,Clear,150,2013-06-17 04:15:00
11:35 PM,69.8,69.8,100,30.04,10.0,SE,4.6,-,N/A,,Clear,130,2013-06-17 04:35:00
11:55 PM,69.8,69.8,100,30.04,10.0,SE,8.1,-,N/A,,Clear,140,2013-06-17 04:55:00